Fitchburg, MA

6:38 AM EDT on June 20, 2018 (GMT -0400)
Fitchburg Municipal

Weather History for KFIT - December, 2017

Change the Weather History Date:

Thursday, December 7, 2017

  Actual Average (WUND) Record (WUND)
Temperature  
Mean Temperature 35 °F -  
Max Temperature 44 °F - - (-1)
Min Temperature 26 °F - - (-1)
Degree Days  
Heating Degree Days 30    
Moisture  
Dew Point 23 °F    
Average Humidity 59    
Maximum Humidity 85    
Minimum Humidity 45    
Precipitation  
Precipitation 0.00 in - - ()
Sea Level Pressure  
Sea Level Pressure 29.92 in    
Wind  
Wind Speed 4 mph (WSW)    
Max Wind Speed 12 mph    
Max Gust Speed 23 mph    
Visibility 10 miles    
Events      
Averages and records for this station are not official NWS values.
T = Trace of Precipitation, MM = Missing Value Source: NWS Daily Summary

Daily Weather History Graph

Daily Weather History Graph

Search for Another Location

Airport or City:

Astronomy

Dec. 07, 2017 Rise Set
Actual Time 7:03 AM EST 4:13 PM EST
Civil Twilight 6:31 AM EST 4:45 PM EST
Nautical Twilight 5:56 AM EST 5:20 PM EST
Astronomical Twilight 5:22 AM EST 5:55 PM EST
Moon 8:59 PM EST (12/7) 10:38 AM EST (12/7)
Length of Visible Light 10h 13m
Length of Day
9h 10m
Waning Gibbous, 78% of the Moon is Illuminated
Dec 7
Waning Gibbous
Dec 10
Last Quarter
Dec 18
New
Dec 26
First Quarter
Jan 1
Full

Hourly Weather History & Observations

Time (EST) Temp. Windchill Dew Point Humidity Pressure Visibility Wind Dir Wind Speed Gust Speed Precip Events Conditions
12:52 AM 32.0 °F 27.5 °F 21.0 °F 64% 29.92 in 10.0 mi SW 4.6 mph - N/A   Clear
1:52 AM 33.1 °F 28.7 °F 21.0 °F 61% 29.93 in 10.0 mi SSW 4.6 mph - N/A   Clear
2:52 AM 34.0 °F 31.0 °F 21.0 °F 59% 29.92 in 10.0 mi WSW 3.5 mph - N/A   Clear
3:52 AM 27.0 °F - 21.9 °F 81% 29.91 in 10.0 mi Calm Calm - N/A   Clear
4:52 AM 26.1 °F - 21.9 °F 84% 29.92 in 10.0 mi Calm Calm - N/A   Clear
5:52 AM 27.0 °F - 23.0 °F 85% 29.93 in 10.0 mi Calm Calm - N/A   Overcast
6:52 AM 26.1 °F - 21.9 °F 84% 29.94 in 10.0 mi Calm Calm - N/A   Mostly Cloudy
7:52 AM 37.0 °F 31.6 °F 25.0 °F 62% 29.94 in 10.0 mi WSW 6.9 mph - N/A   Overcast
8:52 AM 39.0 °F 35.7 °F 25.0 °F 57% 29.95 in 10.0 mi Variable 4.6 mph - N/A   Partly Cloudy
9:52 AM 42.1 °F 39.2 °F 26.1 °F 53% 29.95 in 10.0 mi Variable 4.6 mph - N/A   Clear
10:52 AM 44.1 °F 38.1 °F 26.1 °F 49% 29.94 in 10.0 mi West 11.5 mph 23.0 mph N/A   Partly Cloudy
11:52 AM 44.1 °F 39.5 °F 25.0 °F 47% 29.92 in 10.0 mi West 8.1 mph - N/A   Mostly Cloudy
12:52 PM 43.0 °F 36.8 °F 23.0 °F 45% 29.90 in 10.0 mi West 11.5 mph - N/A   Scattered Clouds
1:52 PM 43.0 °F 39.5 °F 25.0 °F 49% 29.89 in 10.0 mi West 5.8 mph - N/A   Mostly Cloudy
2:52 PM 43.0 °F 40.3 °F 24.1 °F 47% 29.89 in 10.0 mi WSW 4.6 mph - N/A   Overcast
3:52 PM 42.1 °F 38.4 °F 23.0 °F 47% 29.89 in 10.0 mi WNW 5.8 mph - N/A   Overcast
4:52 PM 39.9 °F 37.8 °F 23.0 °F 51% 29.91 in 10.0 mi WNW 3.5 mph - N/A   Overcast
5:52 PM 39.9 °F - 24.1 °F 53% 29.91 in 10.0 mi Calm Calm - N/A   Overcast
6:52 PM 39.0 °F 36.8 °F 23.0 °F 53% 29.91 in 10.0 mi SSW 3.5 mph - N/A   Overcast
7:52 PM 39.9 °F 34.5 °F 21.9 °F 49% 29.92 in 10.0 mi WSW 8.1 mph - N/A   Overcast
8:52 PM 39.0 °F 36.8 °F 23.0 °F 53% 29.93 in 10.0 mi SSW 3.5 mph - N/A   Overcast
9:52 PM 35.1 °F 31.0 °F 24.1 °F 64% 29.94 in 10.0 mi SW 4.6 mph - N/A   Scattered Clouds
10:52 PM 36.0 °F 32.1 °F 21.0 °F 55% 29.96 in 10.0 mi WSW 4.6 mph - N/A   Scattered Clouds
11:52 PM 32.0 °F - 21.9 °F 66% 29.96 in 10.0 mi Calm Calm - N/A   Clear